Date,TemperatureHighF,TemperatureAvgF,TemperatureLowF,DewpointHighF,DewpointAvgF,DewpointLowF,HumidityHigh,HumidityAvg,HumidityLow,PressureMaxIn,PressureMinIn,WindSpeedMaxMPH,WindSpeedAvgMPH,GustSpeedMaxMPH,PrecipitationSumIn
2013-1-1,23,14,2,13,8,-1,86,76,52,30.22,30.01,8,2,8,0.00
2013-1-2,35,24,13,30,19,8,85,80,72,30.14,29.94,8,2,8,0.00
2013-1-3,31,23,16,26,18,12,86,81,72,30.32,30.13,9,2,9,0.00
2013-1-4,34,23,16,22,16,12,87,76,58,30.22,30.04,9,3,9,0.00
2013-1-5,32,23,13,26,17,9,86,78,66,30.12,29.90,11,2,11,0.00
2013-1-6,36,25,11,25,18,8,86,77,60,30.23,30.03,10,2,10,0.00
2013-1-7,43,32,20,30,25,17,86,76,58,30.03,29.87,11,2,11,0.00
2013-1-8,43,31,18,34,25,15,86,79,63,30.04,29.75,15,2,15,0.00
2013-1-9,50,35,23,36,28,20,86,78,55,30.33,30.04,8,1,8,0.00
2013-1-10,41,37,32,36,30,27,84,77,60,30.24,29.61,10,2,10,0.00
2013-1-11,53,41,26,47,34,18,84,78,69,29.68,29.31,16,3,16,0.00
2013-1-12,26,19,11,18,10,4,75,67,59,30.05,29.68,16,4,16,0.00
2013-1-13,20,13,7,10,5,2,81,70,51,30.24,30.02,9,2,9,0.00
2013-1-14,30,17,6,18,8,2,85,70,49,30.35,30.23,9,1,9,0.00
2013-1-15,36,23,10,21,15,6,84,71,47,30.25,29.94,12,2,12,0.00
2013-1-16,51,36,23,35,27,17,83,71,52,30.15,29.82,11,3,11,0.00
2013-1-17,37,29,21,32,24,17,85,83,73,30.36,30.15,8,1,8,0.00
2013-1-18,52,39,26,35,29,22,85,70,50,30.19,29.83,16,4,16,0.00
2013-1-19,52,39,21,34,29,13,82,68,48,30.25,29.77,12,3,12,0.00
2013-1-20,20,17,13,12,8,6,83,70,54,30.32,30.22,8,2,8,0.00
2013-1-21,15,10,4,10,-1,-6,80,59,46,30.35,30.25,9,2,9,0.00
2013-1-22,26,16,10,15,8,0,82,71,60,30.28,30.14,6,1,6,0.00
2013-1-23,29,20,10,20,12,1,83,73,64,30.41,30.05,10,3,10,0.00
2013-1-24,20,12,2,7,1,-6,70,61,51,30.45,30.08,9,3,9,0.00
2013-1-25,47,29,15,29,18,5,83,65,45,30.15,30.00,8,2,8,0.00
2013-1-26,47,32,18,29,21,11,82,66,50,30.15,29.91,10,3,10,0.00
2013-1-27,43,39,36,37,32,26,84,76,59,29.91,29.61,8,2,8,0.00
2013-1-28,46,39,35,38,31,27,79,73,70,29.78,29.47,6,1,6,0.00
2013-1-29,41,34,30,32,29,26,85,81,71,29.62,29.47,12,3,12,0.00
2013-1-30,30,22,14,26,16,8,86,77,63,29.83,29.54,13,4,13,0.00
2013-1-31,14,7,0,8,-1,-8,79,68,58,30.30,29.83,14,3,14,0.00
2013-2-1,29,15,-2,20,8,-8,81,71,60,30.30,29.94,15,4,15,0.00
2013-2-2,38,31,25,31,24,19,84,77,64,30.09,29.93,9,2,9,0.00
2013-2-3,43,34,19,29,24,13,80,68,53,30.10,29.68,15,3,15,0.00
2013-2-4,37,28,22,30,22,18,85,80,71,29.91,29.66,11,3,11,0.00
2013-2-5,49,36,26,34,27,21,85,71,44,29.96,29.71,11,3,11,0.00
2013-2-6,54,42,29,40,33,24,83,72,56,29.96,29.72,10,2,10,0.00
2013-2-7,40,34,28,35,28,23,84,81,78,30.12,29.76,9,3,9,0.00
2013-2-8,36,30,25,29,24,21,85,81,72,30.20,30.01,8,2,8,0.00
2013-2-9,49,38,28,38,32,24,85,77,65,30.02,29.56,11,5,11,0.00
2013-2-10,46,38,30,41,31,23,83,77,72,29.68,29.15,18,7,18,0.00
2013-2-11,36,30,20,25,22,16,85,74,63,30.01,29.67,17,4,17,0.00
2013-2-12,50,33,18,29,21,14,85,64,37,30.00,29.75,12,2,12,0.00
2013-2-13,55,37,21,34,25,17,84,65,39,29.76,29.58,11,2,11,0.00
2013-2-14,44,36,21,32,27,14,83,70,45,30.12,29.64,15,4,15,0.00
2013-2-15,35,24,15,22,16,10,85,73,48,30.18,30.06,8,2,9,0.00
2013-2-16,36,25,8,27,18,4,85,76,60,30.15,29.40,10,2,10,0.00
2013-2-17,55,40,24,37,29,19,82,67,50,29.83,29.04,12,3,12,0.00
2013-2-18,43,32,21,33,24,14,83,75,62,29.99,29.49,18,4,18,0.00
2013-2-19,25,16,9,14,4,-1,76,60,35,30.29,29.99,13,4,13,0.00
2013-2-20,26,16,5,10,4,-2,77,59,46,30.30,30.12,10,3,10,0.00
2013-2-21,26,22,21,19,14,8,85,72,54,30.16,29.77,12,5,12,0.00
2013-2-22,24,19,10,17,14,6,85,80,69,29.96,29.77,10,3,10,0.00
2013-2-23,40,23,7,28,17,3,86,76,60,29.93,29.76,11,2,11,0.00
2013-2-24,48,32,20,34,25,16,85,76,54,30.00,29.82,6,1,6,0.00
2013-2-25,36,29,25,28,24,20,84,82,76,30.01,29.85,8,3,8,0.00
2013-2-26,33,28,25,28,23,18,85,81,75,29.86,29.71,9,3,9,0.00
2013-2-27,37,30,23,27,23,19,85,77,62,30.02,29.81,14,5,14,0.00
2013-2-28,33,28,25,25,22,20,84,81,71,30.16,30.02,10,4,11,0.00
2013-3-1,29,25,23,22,19,16,83,76,66,30.28,30.13,9,3,9,0.00
2013-3-2,44,29,18,27,20,14,83,68,45,30.27,30.02,6,2,6,0.00
2013-3-3,44,34,26,32,26,21,82,72,56,30.02,29.65,12,3,12,0.00
2013-3-4,51,35,30,36,28,21,83,74,48,29.96,29.60,11,3,11,0.00
2013-3-5,33,28,23,22,19,16,78,71,61,30.31,29.94,17,6,17,0.00
2013-3-6,42,27,21,28,19,16,82,72,49,30.34,30.16,9,2,9,0.00
2013-3-7,52,36,24,32,25,18,81,67,45,30.20,30.01,10,4,10,0.00
2013-3-8,57,42,30,40,32,25,82,69,50,30.11,29.84,13,4,13,0.00
2013-3-9,57,46,35,52,40,29,82,80,76,29.85,29.47,14,3,14,0.00
2013-3-10,35,28,22,29,23,18,85,81,75,29.88,29.62,17,6,17,0.00
2013-3-11,32,25,21,23,19,15,85,77,59,29.93,29.81,11,3,11,0.01
2013-3-12,35,28,20,25,21,16,85,75,66,30.25,29.93,15,3,15,0.00
2013-3-13,45,29,15,28,19,11,85,68,45,30.35,30.15,7,2,7,0.00
2013-3-14,54,42,31,42,32,23,82,69,59,30.15,29.98,7,2,7,0.00
2013-3-15,59,45,35,45,37,29,82,73,56,30.00,29.66,8,2,8,0.00
2013-3-16,39,32,28,33,26,23,83,78,70,30.11,29.78,13,4,13,0.00
2013-3-17,48,35,24,33,26,18,82,70,50,30.07,29.67,10,4,10,0.00
2013-3-18,36,34,26,31,22,14,83,63,43,29.97,29.65,20,5,20,0.00
2013-3-19,50,28,19,26,17,12,77,66,34,30.25,29.97,10,2,10,0.00
2013-3-20,34,26,16,14,9,5,76,51,37,30.32,30.04,14,3,14,0.00
2013-3-21,34,28,21,17,14,11,70,56,43,30.03,29.84,7,2,7,0.00
2013-3-22,38,33,27,25,21,18,72,62,53,29.94,29.89,5,2,5,0.00
2013-3-23,38,32,29,28,25,21,83,74,54,30.04,29.93,10,3,10,0.00
2013-3-24,29,27,25,25,21,19,84,79,68,30.01,29.96,11,4,11,0.00
2013-3-25,32,27,23,24,21,18,84,79,65,30.26,30.00,12,4,12,0.00
2013-3-26,43,29,14,26,19,10,85,67,47,30.29,30.15,8,1,8,0.00
2013-3-27,54,40,26,32,26,20,79,61,41,30.19,30.10,9,3,9,0.00
2013-3-28,61,41,29,39,30,24,83,67,38,30.17,30.07,5,1,5,0.00
2013-3-29,70,53,34,45,35,28,82,56,28,30.14,29.97,8,2,8,0.00
2013-3-30,66,56,46,54,42,34,79,62,36,30.01,29.84,11,3,11,0.00
2013-3-31,56,46,32,41,32,24,82,62,30,30.08,29.88,13,3,13,0.00
2013-4-1,40,33,24,25,20,16,79,59,42,30.26,30.08,10,3,10,0.00
2013-4-2,57,38,20,31,23,14,82,57,32,30.24,30.15,7,1,7,0.00
2013-4-3,60,43,30,32,26,20,69,51,32,30.27,30.13,12,3,12,0.00
2013-4-4,62,48,31,40,32,23,81,57,40,30.14,29.98,12,3,12,0.00
2013-4-5,70,53,34,44,35,28,78,53,32,30.10,29.65,12,4,12,0.00
2013-4-6,69,59,51,47,41,38,71,54,37,29.73,29.54,14,4,14,0.00
2013-4-7,74,53,44,49,42,38,79,68,40,29.79,29.68,9,2,9,0.00
2013-4-9,48,40,34,36,29,24,67,64,62,29.91,29.64,18,6,18,0.63
2013-4-10,37,35,33,27,25,23,69,66,65,29.93,29.72,13,3,13,0.30
2013-4-11,37,33,30,29,25,21,75,72,66,29.74,29.58,11,4,11,0.09
2013-4-12,42,36,32,31,27,24,75,71,64,29.94,29.66,12,4,12,0.00
2013-4-13,59,43,26,40,32,18,76,64,46,29.96,29.59,11,3,12,0.00
2013-4-14,70,52,42,52,40,33,72,64,49,29.62,29.28,15,4,15,0.34
2013-4-15,46,39,33,34,29,24,74,67,54,30.02,29.61,11,3,11,0.00
2013-4-16,52,43,35,35,30,27,74,62,42,30.16,29.99,13,4,13,0.00
2013-4-17,47,42,36,36,31,26,73,65,63,30.09,29.65,12,4,13,0.73
2013-4-18,36,34,32,28,25,22,76,71,65,29.84,29.63,16,6,17,0.49
2013-4-19,46,36,29,27,24,21,76,61,40,30.03,29.79,15,5,15,0.00
2013-4-20,51,38,22,30,23,16,77,56,36,30.19,30.03,11,2,11,0.01
2013-4-21,71,55,44,49,38,29,70,54,35,30.07,29.92,19,4,19,0.66
2013-4-22,55,43,33,41,32,25,75,64,58,30.14,29.88,15,3,15,0.87
2013-4-23,40,33,28,27,24,22,76,69,57,30.19,30.07,14,4,14,0.00
2013-4-24,61,41,22,38,27,15,76,60,28,30.13,29.96,18,2,18,0.02
2013-4-25,72,52,28,39,33,20,74,51,28,30.18,29.94,17,3,17,0.00
2013-4-26,76,60,50,52,43,37,70,56,39,30.12,29.95,14,4,14,0.00
2013-4-27,73,57,43,55,44,31,70,62,48,30.14,29.88,7,2,7,0.00
2013-4-28,84,66,46,58,48,35,70,54,32,29.89,29.63,12,3,17,0.00
2013-4-29,89,68,54,61,51,45,70,58,28,29.72,29.45,9,2,9,0.00
2013-4-30,74,69,61,57,50,40,63,51,44,29.83,29.44,14,5,14,0.00
2013-5-1,61,42,33,44,31,22,72,67,49,30.34,29.83,17,7,17,0.39
2013-5-2,50,40,33,34,28,22,73,64,51,30.45,30.31,13,4,13,0.65
2013-5-3,47,40,32,33,29,24,74,65,55,30.31,29.97,14,4,14,0.00
2013-5-4,44,39,35,33,28,23,73,65,61,30.07,29.91,14,5,14,0.05
2013-5-5,55,48,41,44,36,29,67,63,60,30.10,30.03,8,2,8,0.00
2013-5-6,69,55,48,54,42,34,67,62,56,30.09,29.96,7,1,7,0.00
2013-5-7,81,63,44,59,46,30,66,55,40,30.01,29.88,10,1,10,0.09
2013-5-8,74,63,56,60,49,40,67,60,54,29.90,29.83,8,1,8,0.05
2013-5-9,68,59,55,55,42,37,64,53,50,29.94,29.80,9,2,9,0.78
2013-5-10,73,58,49,53,42,32,68,56,41,30.03,29.93,10,2,10,0.00
2013-5-11,60,54,41,44,31,22,63,44,25,30.18,29.96,13,3,13,0.00
2013-5-12,80,53,32,39,29,22,69,44,21,30.20,30.04,8,1,8,0.00
2013-5-13,87,68,46,54,44,29,67,44,25,30.04,29.78,13,3,16,0.01
2013-5-14,103,83,58,65,54,43,67,40,17,29.78,29.58,18,4,18,0.00
2013-5-15,77,69,63,49,45,42,52,43,30,29.87,29.72,10,3,10,0.00
2013-5-18,90,83,70,68,66,53,67,56,44,29.73,29.64,11,3,11,0.02
2013-5-19,86,68,60,68,50,40,63,52,45,29.75,29.45,13,2,13,0.99
2013-5-20,78,63,54,60,44,35,61,51,47,29.60,29.46,12,2,12,0.01
2013-5-28,85,79,69,69,63,49,65,59,48,29.68,29.59,7,2,7,0.00
2013-5-29,77,70,63,54,45,34,51,41,33,29.67,29.47,15,2,15,1.15
2013-5-30,80,68,59,64,44,32,63,44,33,29.58,29.44,11,2,11,0.27
2013-5-31,86,72,54,61,47,30,60,42,29,29.66,29.55,16,3,16,0.00
2013-6-1,63,59,54,48,40,30,64,51,36,29.96,29.61,13,4,13,0.04
2013-6-2,75,61,50,50,43,28,63,51,37,30.06,29.94,6,1,6,0.00
2013-6-3,78,60,48,54,40,26,62,48,39,29.98,29.77,7,1,7,0.16
2013-6-4,80,67,59,64,41,28,63,40,29,29.93,29.80,8,2,8,0.11
2013-6-5,76,66,56,54,42,28,64,43,27,29.99,29.90,7,2,7,0.03
2013-6-6,74,66,52,56,47,29,64,50,38,29.94,29.89,7,2,7,0.00
2013-6-7,85,69,50,56,50,25,61,50,35,29.99,29.83,5,1,6,0.08
2013-6-8,69,62,58,52,38,26,64,42,25,29.84,29.61,8,2,8,0.97
2013-6-9,70,64,60,50,34,25,50,33,25,29.78,29.65,9,3,9,0.21
2013-6-10,91,71,55,69,45,19,62,41,23,29.84,29.71,7,1,7,0.00
2013-6-11,94,77,68,71,50,30,59,39,24,29.78,29.65,6,1,6,0.04
2013-6-12,89,77,63,72,58,39,64,53,29,29.97,29.61,13,3,13,0.00
2013-6-13,82,69,56,60,48,21,62,48,23,30.04,29.91,7,1,7,0.00
2013-6-14,92,74,62,74,48,24,58,41,23,29.98,29.73,11,2,11,0.00
2013-6-17,92,83,72,62,59,56,57,45,35,29.95,29.88,6,2,6,0.02
2013-6-18,99,74,64,65,50,18,62,44,17,30.03,29.91,5,1,5,0.14
2013-6-19,94,79,62,70,53,17,60,43,17,29.95,29.84,7,2,7,0.01
2013-6-20,96,84,69,75,58,18,60,45,16,29.90,29.75,10,3,10,0.02
2013-6-21,98,88,78,75,64,36,61,46,22,29.82,29.71,9,3,9,0.04
2013-6-22,95,83,70,74,63,30,61,51,24,29.95,29.73,13,3,13,0.00
2013-6-23,88,76,65,71,47,13,61,40,13,29.90,29.67,12,2,12,1.10
2013-6-24,89,78,66,73,34,10,59,26,8,29.95,29.66,24,2,24,0.83
2013-6-25,80,73,70,41,21,11,28,15,8,29.76,29.68,8,1,8,0.01
2013-6-26,99,88,72,68,63,33,60,45,25,29.84,29.79,7,1,7,0.00
2013-6-27,87,73,67,70,24,8,59,19,7,29.95,29.83,8,1,8,0.43
2013-7-2,90,73,62,61,43,8,60,38,13,30.04,30.00,10,1,10,0.04
2013-7-3,94,74,56,67,40,5,60,33,12,30.01,29.89,5,1,5,0.00
2013-7-4,93,79,59,66,54,19,60,43,21,29.94,29.83,12,2,12,0.00
2013-7-5,93,80,67,69,62,49,61,54,43,29.87,29.78,7,2,7,0.00
2013-7-6,96,82,70,72,62,48,61,52,44,29.83,29.75,8,2,8,0.00
2013-7-7,101,86,73,73,66,53,61,52,41,29.86,29.77,14,2,14,0.00
2013-7-8,99,86,76,76,57,17,60,42,11,29.92,29.83,8,1,8,0.00
2013-7-9,101,87,74,79,56,15,59,39,10,29.91,29.80,7,1,7,0.08
2013-7-10,86,78,69,67,45,12,58,36,11,30.04,29.91,8,2,8,0.00
2013-7-15,95,82,76,70,65,57,60,56,44,30.11,30.07,3,0,3,0.00
2013-7-16,100,86,69,72,58,19,60,41,15,30.20,30.11,9,1,9,0.00
2013-7-17,102,88,72,76,60,21,60,42,15,30.24,30.11,9,1,9,0.00
2013-7-18,100,88,73,75,61,26,60,43,18,30.12,29.88,17,4,17,0.00
2013-7-19,97,85,75,75,67,61,62,54,38,29.90,29.83,10,2,10,0.00
2013-7-20,98,81,66,68,59,36,62,49,33,29.96,29.80,5,1,5,0.00
2013-7-21,99,83,71,74,57,32,61,43,23,29.87,29.72,6,2,9,0.09
2013-7-22,101,85,70,79,54,19,60,38,15,29.81,29.70,8,2,8,0.17
2013-7-23,84,74,66,66,50,19,61,45,17,29.97,29.79,11,2,11,0.10
2013-7-24,85,74,59,66,53,19,62,48,21,30.03,29.94,6,1,6,0.00
2013-7-25,90,77,69,69,54,19,63,46,16,29.99,29.92,11,2,11,0.05
2013-7-26,77,71,59,60,42,15,63,40,15,30.06,29.92,10,2,10,0.02
2013-7-27,79,67,53,53,44,15,63,45,21,30.08,29.95,8,2,8,0.00
2013-7-28,81,68,48,54,42,12,58,40,23,30.01,29.96,8,1,8,0.00
2013-7-29,67,64,59,50,32,12,63,35,13,30.00,29.95,5,1,5,0.12
2013-7-30,76,71,64,51,32,11,41,26,13,30.05,29.96,5,2,5,0.01
2013-7-31,90,81,61,69,56,9,60,46,12,30.08,29.99,9,1,9,0.03
2013-8-1,95,79,61,73,49,7,60,39,8,30.04,29.81,8,2,13,0.19
2013-8-2,85,76,66,69,52,8,60,46,9,29.95,29.83,7,3,7,0.02
2013-8-3,81,72,63,62,49,17,61,46,17,30.13,29.97,6,2,6,0.00
2013-8-4,90,74,60,70,52,21,61,47,19,30.13,29.96,6,2,6,0.00
2013-8-5,92,80,69,74,33,10,58,21,3,29.98,29.79,10,2,10,0.06
2013-8-6,94,78,66,76,34,8,58,24,2,29.92,29.74,10,2,10,0.31
2013-8-7,85,76,67,67,28,0,60,22,2,29.95,29.78,7,2,7,0.00
2013-8-8,83,73,66,66,39,8,59,34,11,29.98,29.90,4,1,4,0.00
2013-8-9,82,72,60,65,35,4,61,30,5,30.09,29.96,6,1,6,0.00
2013-8-10,88,74,57,68,41,1,59,36,6,30.15,30.01,11,1,11,0.00
2013-8-11,92,78,63,71,47,5,58,38,1,30.06,29.93,11,3,11,0.00
2013-8-12,85,76,68,66,38,9,59,28,1,30.02,29.94,8,2,8,0.00
2013-8-13,81,72,61,62,42,4,60,38,6,30.12,30.02,6,2,6,0.00
2013-8-14,86,70,59,64,43,3,60,42,10,30.13,30.02,5,1,5,0.00
2013-8-15,70,64,60,37,13,4,30,11,3,30.05,29.98,8,2,8,0.59
2013-8-16,81,69,62,63,35,5,60,35,6,30.11,30.04,7,2,7,0.00
2013-8-17,84,72,57,64,39,1,59,35,3,30.13,30.05,7,1,7,0.00
2013-8-18,86,72,54,64,39,-1,58,34,3,30.09,29.99,10,1,10,0.00
2013-8-19,91,78,65,71,42,7,58,33,2,30.02,29.87,12,2,12,0.00
2013-8-20,94,82,71,74,45,11,58,32,1,29.91,29.85,13,4,13,0.00
2013-8-21,97,84,72,75,49,12,56,33,1,29.94,29.88,14,4,14,0.00
2013-8-23,95,88,78,73,66,37,58,48,25,29.97,29.91,8,3,8,0.00
2013-8-24,93,81,75,74,46,15,59,33,6,30.00,29.93,8,2,8,0.00
2013-8-25,99,90,73,75,63,14,57,43,1,30.06,29.97,12,3,12,0.00
2013-8-26,100,92,73,76,63,14,58,42,1,30.02,29.89,11,4,11,0.00
2013-8-27,99,88,77,73,66,50,59,48,37,29.91,29.84,11,4,11,0.00
2013-8-28,100,85,70,74,59,19,60,44,15,29.94,29.88,4,1,4,0.00
2013-8-29,100,90,71,75,9,0,55,5,1,29.95,29.85,9,2,9,0.00
2013-8-30,100,85,72,0,0,0,0,0,100,29.86,29.79,7,2,7,0.00
2013-8-31,98,85,73,0,0,0,0,0,100,29.84,29.73,5,1,5,0.00
2013-9-1,83,76,65,0,0,0,0,0,100,29.96,29.72,9,2,9,0.21
2013-9-2,80,69,58,0,0,0,0,0,100,30.05,29.95,7,1,7,0.00
2013-9-3,89,75,54,0,0,0,0,0,100,30.05,29.96,5,1,5,0.00
2013-9-4,91,78,69,66,31,0,61,27,45,30.09,29.98,3,1,3,0.00
2013-9-5,89,79,68,69,57,10,59,50,1,30.13,30.03,5,1,5,0.07
2013-9-6,96,82,67,72,57,13,59,45,12,30.04,29.85,10,2,10,0.00
2013-9-7,96,84,71,73,52,12,58,38,1,29.88,29.81,7,2,7,0.00
2013-9-8,95,82,70,76,44,11,59,29,1,29.87,29.74,8,2,8,0.00
2013-9-9,100,90,75,67,62,16,58,42,3,29.80,29.72,15,5,15,0.00
2013-9-10,98,81,69,70,49,12,60,35,1,30.01,29.81,20,2,22,0.67
2013-9-11,72,70,70,12,11,10,1,1,1,30.02,29.98,7,1,7,0.12
2013-9-12,79,71,62,54,50,31,60,47,32,30.14,30.10,6,2,6,0.00
2013-9-13,81,68,53,58,42,-2,60,43,7,30.17,30.01,6,1,6,0.00
2013-9-14,81,70,54,58,49,13,60,47,19,30.02,29.81,9,2,9,0.00
2013-9-15,70,66,62,55,26,7,60,25,1,30.18,29.80,8,3,8,0.46
2013-9-16,71,62,55,56,25,0,59,28,3,30.26,30.13,7,3,10,0.04
2013-9-17,74,65,58,14,7,2,6,1,1,30.12,29.82,4,2,4,0.18
2013-9-18,92,82,67,72,51,8,58,39,1,29.83,29.64,8,3,8,0.00
2013-9-19,79,71,60,61,29,8,59,23,1,29.93,29.67,8,2,8,0.36
2013-9-20,72,62,51,49,32,-1,58,37,12,30.01,29.91,7,2,7,0.00
2013-9-21,79,66,43,55,37,-10,59,38,3,29.97,29.80,5,1,5,0.00
2013-9-22,83,69,56,61,44,10,59,43,16,29.84,29.75,5,2,5,0.00
2013-9-23,78,69,57,57,48,19,59,48,23,29.78,29.67,6,3,6,0.00
2013-9-24,72,67,58,55,39,2,59,40,1,29.85,29.66,5,2,5,0.00
2013-9-25,82,68,52,61,35,-3,59,32,1,29.85,29.69,6,2,6,0.00
2013-9-26,88,68,62,62,23,5,60,20,1,29.75,29.68,7,3,7,0.00
2013-9-27,90,79,69,64,57,28,60,49,21,29.78,29.70,9,3,9,0.01
2013-9-28,74,62,48,59,31,-3,61,35,1,29.99,29.62,9,2,9,0.38
2013-9-29,80,61,44,51,26,-9,59,29,3,30.00,29.81,12,2,12,0.00
2013-9-30,84,67,53,56,42,1,60,42,12,29.83,29.64,14,3,14,0.00
2013-10-1,80,66,54,55,36,-1,58,36,1,29.90,29.71,7,1,7,0.00
2013-10-2,89,75,58,47,8,0,60,10,1,29.90,29.76,9,2,9,0.00
2013-10-3,79,69,61,0,0,0,0,0,100,29.82,29.67,6,2,10,1.01
2013-10-4,82,69,55,0,0,0,0,0,100,29.80,29.57,16,4,16,0.57
2013-10-5,58,49,43,0,0,0,0,0,100,29.87,29.73,18,6,18,0.00
2013-10-6,51,46,42,0,0,0,0,0,100,29.94,29.70,11,3,11,0.07
2013-10-7,76,61,40,0,0,0,0,0,100,30.01,29.91,11,2,11,0.00
2013-10-8,79,66,46,0,0,0,0,0,100,29.93,29.82,11,3,11,0.00
2013-10-9,79,70,57,0,0,0,0,0,100,29.92,29.86,7,3,7,0.00
2013-10-10,82,68,55,0,0,0,0,0,100,29.93,29.73,8,2,8,0.00
2013-10-11,80,68,53,0,0,0,0,0,100,29.83,29.56,15,4,15,0.00
2013-10-12,68,54,42,0,0,0,0,0,100,30.21,29.83,10,2,10,0.00
2013-10-13,70,53,36,0,0,0,0,0,100,30.33,30.21,7,1,7,0.00
2013-10-14,59,54,48,0,0,0,0,0,100,30.21,29.64,14,3,14,0.79
2013-10-15,56,49,46,0,0,0,0,0,100,29.99,29.72,14,4,14,0.00
2013-10-16,56,48,42,0,0,0,0,0,100,30.00,29.89,8,2,8,0.00
2013-10-17,59,42,34,0,0,0,0,0,100,29.98,29.81,8,1,8,0.00
2013-10-18,53,45,36,0,0,0,0,0,100,30.06,29.92,7,2,7,0.00
2013-10-19,62,46,32,0,0,0,0,0,100,29.92,29.73,11,2,11,0.00
2013-10-20,65,51,41,0,0,0,0,0,100,29.95,29.63,12,2,12,0.00
2013-10-21,54,43,30,0,0,0,0,0,100,30.03,29.85,7,1,7,0.00
2013-10-22,49,44,39,0,0,0,0,0,100,30.04,29.78,8,2,8,0.00
2013-10-23,52,40,31,0,0,0,0,0,100,30.11,29.96,6,1,6,0.00
2013-10-24,49,38,28,0,0,0,0,0,100,30.31,30.11,5,1,7,0.00
2013-10-25,60,43,26,0,0,0,0,0,100,30.30,29.97,15,3,15,0.00
2013-10-26,51,44,30,0,0,0,0,0,100,30.14,29.93,10,2,10,0.00
2013-10-27,70,47,27,0,0,0,0,0,100,30.06,29.75,11,2,11,0.00
2013-10-28,55,48,41,0,0,0,0,0,100,30.11,29.88,10,4,10,0.00
2013-10-29,53,49,42,0,0,0,0,0,100,30.13,29.87,9,2,9,0.19
2013-10-30,63,50,43,0,0,0,0,0,100,29.89,29.71,9,2,9,0.05
2013-10-31,57,47,37,0,0,0,0,0,100,29.70,29.45,10,2,10,0.00
2013-11-1,59,48,40,0,0,0,0,0,100,29.91,29.53,12,3,12,0.01
2013-11-2,58,48,36,0,0,0,0,0,100,30.11,29.92,7,2,7,0.00
2013-11-3,59,53,38,0,0,0,0,0,100,30.00,29.68,12,5,12,0.00
2013-11-4,56,50,35,0,0,0,0,0,100,30.06,29.72,8,2,8,0.00
2013-11-5,45,41,35,0,0,0,0,0,100,30.06,29.75,10,4,10,0.43
2013-11-6,45,38,30,0,0,0,0,0,100,30.18,29.95,6,2,6,0.02
2013-11-7,48,36,28,0,0,0,0,0,100,30.31,30.17,9,2,9,0.00
2013-11-8,63,48,30,0,0,0,0,0,100,30.18,29.66,19,4,19,0.00
2013-11-9,59,48,38,0,0,0,0,0,100,30.27,29.85,9,2,9,0.00
2013-11-10,54,43,30,0,0,0,0,0,100,30.32,30.06,8,2,8,0.00
2013-11-11,43,33,18,0,0,0,0,0,100,30.67,30.02,12,4,13,0.00
2013-11-12,34,22,10,0,0,0,0,0,100,30.78,30.45,8,2,8,0.00
2013-11-13,54,41,22,0,0,0,0,0,100,30.46,29.91,13,4,13,0.00
2013-11-14,56,42,32,0,0,0,0,0,100,29.91,29.82,9,1,9,0.00
2013-11-15,57,42,27,0,0,0,0,0,100,29.83,29.57,8,2,8,0.00
2013-11-18,56,44,35,0,0,0,0,0,100,30.11,30.08,4,1,4,0.00
2013-11-19,62,47,32,0,0,0,0,0,100,30.10,29.80,15,4,15,0.00
2013-11-20,57,48,39,0,0,0,0,0,100,29.87,29.68,7,4,9,0.00
2013-11-21,39,28,21,0,0,0,0,0,100,30.46,29.87,12,5,12,0.00
2013-11-22,29,21,13,0,0,0,0,0,100,30.60,30.46,9,2,9,0.00
2013-11-23,23,17,10,0,0,0,0,0,100,30.78,30.52,8,3,8,0.00
2013-11-24,34,22,11,0,0,0,0,0,100,30.64,30.11,10,3,10,0.00
2013-11-25,44,33,24,0,0,0,0,0,100,30.12,30.01,10,3,10,0.01
2013-11-26,32,26,18,0,0,0,0,0,100,30.33,30.10,13,3,13,0.00
2013-11-27,34,23,9,0,0,0,0,0,100,30.32,29.94,10,2,10,0.00
2013-11-28,34,28,17,0,0,0,0,0,100,30.38,29.97,9,2,9,0.00
2013-11-29,45,31,18,0,0,0,0,0,100,30.38,30.03,8,2,8,0.00
2013-11-30,55,39,26,0,0,0,0,0,100,30.06,29.96,4,1,4,0.00
2013-12-1,50,36,26,0,0,0,0,0,100,30.07,29.77,4,1,4,0.00
2013-12-2,62,44,33,0,0,0,0,0,100,29.77,29.44,7,2,7,0.00
2013-12-3,44,38,34,0,0,0,0,0,100,29.61,29.42,10,2,10,0.00
2013-12-4,34,22,16,0,0,0,0,0,100,29.98,29.56,12,5,12,0.00
2013-12-5,17,11,7,0,0,0,0,0,100,30.33,29.96,13,4,13,0.00
2013-12-6,12,5,0,0,0,0,0,0,100,30.58,30.32,9,3,9,0.00
2013-12-7,13,5,-3,0,0,0,0,0,100,30.61,30.32,7,2,7,0.00
2013-12-8,26,16,10,0,0,0,0,0,100,30.30,29.91,7,2,7,0.00
2013-12-9,14,7,-2,0,0,0,0,0,100,30.22,29.96,14,4,14,0.00
2013-12-10,33,24,14,0,0,0,0,0,100,30.15,29.94,12,3,12,0.01
2013-12-11,29,10,2,0,0,0,0,0,100,30.54,30.15,10,3,10,0.00
2013-12-12,34,21,7,0,0,0,0,0,100,30.33,29.97,8,2,8,0.01
2013-12-13,34,25,17,0,0,0,0,0,100,29.99,29.78,9,2,9,0.00
2013-12-14,22,18,14,0,0,0,0,0,100,30.12,29.99,10,2,10,0.00
2013-12-15,33,22,15,0,0,0,0,0,100,30.06,29.85,5,1,5,0.00
2013-12-16,47,28,14,0,0,0,0,0,100,30.06,29.86,7,1,7,0.04
2013-12-17,41,32,26,0,0,0,0,0,100,30.17,29.99,9,2,9,0.00
2013-12-18,53,37,26,0,0,0,0,0,100,29.99,29.61,10,2,10,0.00
2013-12-19,34,29,19,0,0,0,0,0,100,29.79,29.63,11,4,11,0.00
2013-12-20,19,16,13,0,0,0,0,0,100,29.88,29.78,11,3,11,0.00
2013-12-21,24,21,18,0,0,0,0,0,100,29.79,29.69,10,2,10,0.00
2013-12-23,12,6,0,0,0,0,0,0,100,30.48,30.39,10,2,10,0.00
2013-12-24,26,14,0,0,0,0,0,0,100,30.40,29.99,10,3,10,0.00
2013-12-25,42,29,20,0,0,0,0,0,100,30.18,30.08,13,3,13,0.01
2013-12-26,48,34,22,0,0,0,0,0,100,30.14,29.98,7,2,7,0.00
2013-12-27,63,39,19,0,0,0,0,0,100,30.14,29.94,15,3,15,0.00
2013-12-28,60,40,14,0,0,0,0,0,100,30.03,29.63,17,5,17,0.00
2013-12-29,14,8,3,0,0,0,0,0,100,30.27,30.03,15,4,15,0.00
2013-12-30,35,23,5,0,0,0,0,0,100,30.17,29.93,10,3,10,0.00
2013-12-31,33,17,9,0,0,0,0,0,100,30.14,29.89,11,3,11,0.00
2014-1-1,10,7,3,0,0,0,0,0,100,30.27,30.03,9,4,9,0.00
2014-1-2,8,3,-1,0,0,0,0,0,100,30.33,30.21,6,2,6,0.00